Regional Weather Roundup
Issued by NWS

Home | Current Version | Previous Version | Text Only | Print | Product List | Glossary On
Versions: 1 2 3 4 5 6 7 8 9 10 11 12 13 14 15 16 17 18 19 20 21 22 23 24 25 26 27 28 29 30 31 32 33 34 35 36 37 38 39 40 41 42 43 44 45 46 47 48 49 50
000
ASUS46 KPQR 210210
RWROR

OREGON REGIONAL WEATHER ROUNDUP
NATIONAL WEATHER SERVICE PORTLAND OR
700 PM PDT MON OCT 20 2014

NOTE: "FAIR" INDICATES FEW OR NO CLOUDS BELOW 12,000 FEET WITH
NO SIGNIFICANT WEATHER AND/OR OBSTRUCTIONS TO VISIBILITY.

ORZ001>013-210300-
NORTHWEST OREGON


CITY           SKY/WX    TMP DP  RH WIND       PRES   REMARKS
ASTORIA        PTCLDY    58  52  80 S10G20    29.76R
NEWPORT        PTCLDY    55  54  94 S14         N/A
PORTLAND       PTCLDY    57  54  89 S5        29.81R
VANCOUVER WA   MOCLDY    57  52  83 SE5       29.81R
SCAPPOOSE      PTCLDY    57  54  89 CALM      29.80R
HILLSBORO      MOCLDY    54  52  93 SE6       29.80R
AURORA         PTCLDY    57  52  83 S5        29.83R
MCMINNVILLE    CLEAR     56  51  84 S8        29.82R
SALEM          LGT RAIN  58  53  84 S6        29.82R
CORVALLIS      MOCLDY    57  52  82 S6        29.84S
EUGENE         MOCLDY    57  52  83 W6        29.84R
$$

ORZ021-028-210300-
SOUTHWEST OREGON


CITY           SKY/WX    TMP DP  RH WIND       PRES   REMARKS
NORTH BEND     MOCLDY    57  54  88 S10G17    29.87R
BROOKINGS      CLOUDY    55  54  97 S6        29.92R FOG
ROSEBURG       MOCLDY    58  47  66 S3        29.86R
SEXTON SUMMIT  FOG       41  41 100 S10       29.89R VSB 1/4
MEDFORD        LGT RAIN  52  46  80 SW8G20    29.90R
$$

ORZ009-041-210300-
COLUMBIA GORGE


CITY           SKY/WX    TMP DP  RH WIND       PRES   REMARKS
TROUTDALE      MOCLDY    58  51  78 S5        29.81R
THE DALLES     MOCLDY    55  52  89 NW3       29.81R
$$

ORZ029>031-042>050-061>064-210300-
EASTERN OREGON


CITY           SKY/WX    TMP DP  RH WIND       PRES   REMARKS
REDMOND        CLOUDY    47  43  86 E5        29.84R
BEND           CLOUDY    48  45  87 CALM      29.86R
KLAMATH FALLS  MOCLDY    45  39  79 S7        29.87R
LAKEVIEW       CLOUDY    46  43  87 S9        29.91R
HERMISTON      LGT RAIN  55  52  89 SW5       29.84S
PENDLETON      CLOUDY    54  47  77 W16       29.84R
JOHN DAY       CLOUDY    50  46  84 W14       29.88R
MEACHAM        CLOUDY    47  41  80 VRB3      29.87R
LA GRANDE      MOCLDY    55  36  47 W24G31    29.80R
BAKER CITY     CLOUDY    58  28  32 VRB5      29.73S
BURNS          MOCLDY    54  40  59 W17       29.84R
ROME             N/A     62  24  23 S6        29.76F
ONTARIO        MOCLDY    61  37  41 SE3       29.69F
$$



USA.gov is the U.S. government's official web portal to all federal, state and local government web resources and services.